| time (UTC) | temp C | wind direction | speed KPH | gust KPH | rain 1hr cm | rain 24hr cm | rain mn cm | humidity % | barometer mb |
| 20260906042220 | 23 | 7 | 4.8 | 4.8 | 0.00 | 0.00 | 0.00 | 85 | 1018.3 |
| 20260906041715 | 23 | 4 | 1.6 | 1.6 | 0.00 | 0.00 | 0.00 | 85 | 1018.2 |
| 20260906041210 | 23 | 3 | 0.0 | 0.0 | 0.00 | 0.00 | 0.00 | 85 | 1018.1 |
| 20260906040706 | 23 | 355 | 1.6 | 1.6 | 0.00 | 0.00 | 0.00 | 85 | 1018.1 |
| 20260906040201 | 23 | 0 | 1.6 | 1.6 | 0.00 | 0.00 | 0.00 | 86 | 1017.8 |
| 20260906035656 | 23 | 348 | 1.6 | 1.6 | 0.00 | 0.00 | 0.00 | 86 | 1017.8 |
| 20260906035152 | 23 | 357 | 0.0 | 1.6 | 0.00 | 0.00 | 0.00 | 87 | 1017.7 |
| 20260906034647 | 23 | 342 | 0.0 | 0.0 | 0.00 | 0.00 | 0.00 | 87 | 1017.6 |
| 20260906034141 | 23 | 3 | 1.6 | 3.2 | 0.00 | 0.00 | 0.00 | 86 | 1017.6 |
| 20260906033637 | 23 | 24 | 1.6 | 3.2 | 0.00 | 0.00 | 0.00 | 86 | 1017.8 |
| 20260906033132 | 23 | 352 | 0.0 | 1.6 | 0.00 | 0.00 | 0.00 | 86 | 1017.7 |
| 20260906032629 | 23 | 352 | 3.2 | 3.2 | 0.00 | 0.00 | 0.00 | 86 | 1017.8 |
| 20260906032128 | 23 | 348 | 3.2 | 3.2 | 0.00 | 0.00 | 0.00 | 86 | 1017.7 |
| 20260906031624 | 23 | 12 | 3.2 | 3.2 | 0.00 | 0.00 | 0.00 | 86 | 1017.7 |
| 20260906031119 | 23 | 357 | 1.6 | 3.2 | 0.00 | 0.00 | 0.00 | 85 | 1017.4 |
| 20260906030612 | 23 | 3 | 1.6 | 1.6 | 0.00 | 0.00 | 0.00 | 86 | 1017.3 |
| 20260906030108 | 23 | 21 | 3.2 | 3.2 | 0.00 | 0.00 | 0.00 | 85 | 1017.4 |
| 20260906025607 | 24 | 48 | 1.6 | 3.2 | 0.00 | 0.00 | 0.00 | 85 | 1017.3 |
| 20260906025106 | 23 | 7 | 3.2 | 3.2 | 0.00 | 0.00 | 0.00 | 85 | 1017.3 |
| 20260906024601 | 23 | 359 | 1.6 | 3.2 | 0.00 | 0.00 | 0.00 | 85 | 1017.2 |
| 20260906024055 | 23 | 357 | 1.6 | 3.2 | 0.00 | 0.00 | 0.00 | 86 | 1017.1 |
| 20260906023551 | 23 | 352 | 1.6 | 1.6 | 0.00 | 0.00 | 0.00 | 86 | 1016.9 |
| 20260906023046 | 23 | 353 | 0.0 | 1.6 | 0.00 | 0.00 | 0.00 | 86 | 1017.0 |
| 20260906022542 | 23 | 345 | 1.6 | 1.6 | 0.00 | 0.00 | 0.00 | 86 | 1017.0 |
| 20260906022037 | 23 | 13 | 4.8 | 4.8 | 0.00 | 0.00 | 0.00 | 87 | 1016.9 |
| 20260906021532 | 23 | 6 | 1.6 | 3.2 | 0.00 | 0.00 | 0.00 | 86 | 1016.8 |
| 20260906021031 | 24 | 23 | 3.2 | 3.2 | 0.00 | 0.00 | 0.00 | 86 | 1016.7 |
| 20260906020530 | 24 | 43 | 4.8 | 4.8 | 0.00 | 0.00 | 0.00 | 85 | 1016.5 |
| 20260906020025 | 24 | 30 | 1.6 | 3.2 | 0.00 | 0.00 | 0.00 | 85 | 1016.6 |
| 20260906015524 | 24 | 346 | 0.0 | 0.0 | 0.00 | 0.00 | 0.00 | 85 | 1016.5 |
| 20260906015023 | 24 | 26 | 3.2 | 3.2 | 0.00 | 0.00 | 0.00 | 85 | 1016.4 |
| 20260906014518 | 24 | 1 | 1.6 | 1.6 | 0.00 | 0.00 | 0.00 | 85 | 1016.2 |
| 20260906014014 | 24 | 342 | 1.6 | 3.2 | 0.00 | 0.00 | 0.00 | 84 | 1016.4 |
| 20260906013509 | 25 | 14 | 1.6 | 3.2 | 0.00 | 0.00 | 0.00 | 84 | 1016.2 |
| 20260906013005 | 24 | 2 | 1.6 | 3.2 | 0.00 | 0.00 | 0.00 | 84 | 1016.4 |
| 20260906012500 | 25 | 350 | 0.0 | 0.0 | 0.00 | 0.00 | 0.00 | 83 | 1016.3 |
| 20260906011959 | 25 | 352 | 0.0 | 0.0 | 0.00 | 0.00 | 0.00 | 83 | 1016.3 |
| 20260906011455 | 25 | 24 | 3.2 | 3.2 | 0.00 | 0.00 | 0.00 | 82 | 1016.3 |
| 20260906010950 | 25 | 12 | 3.2 | 3.2 | 0.00 | 0.00 | 0.00 | 82 | 1016.3 |
| 20260906010445 | 25 | 11 | 1.6 | 3.2 | 0.00 | 0.00 | 0.00 | 82 | 1016.3 |
| 20260906005942 | 25 | 50 | 3.2 | 3.2 | 0.00 | 0.00 | 0.00 | 81 | 1016.3 |
| 20260906005441 | 25 | 1 | 1.6 | 1.6 | 0.00 | 0.00 | 0.00 | 81 | 1016.1 |
| 20260906004939 | 25 | 49 | 3.2 | 4.8 | 0.00 | 0.00 | 0.00 | 81 | 1016.3 |
| 20260906004434 | 25 | 37 | 3.2 | 3.2 | 0.00 | 0.00 | 0.00 | 81 | 1016.3 |
| 20260906003930 | 25 | 42 | 3.2 | 4.8 | 0.00 | 0.00 | 0.00 | 80 | 1016.2 |
| 20260906003430 | 25 | 19 | 0.0 | 1.6 | 0.00 | 0.00 | 0.00 | 80 | 1016.3 |
| 20260906002925 | 25 | 53 | 3.2 | 4.8 | 0.00 | 0.00 | 0.00 | 80 | 1016.4 |
| 20260906002425 | 25 | 44 | 3.2 | 4.8 | 0.00 | 0.00 | 0.00 | 80 | 1016.3 |
| 20260906001920 | 25 | 36 | 6.4 | 6.4 | 0.00 | 0.00 | 0.00 | 80 | 1016.5 |
| 20260906001416 | 25 | 52 | 3.2 | 4.8 | 0.00 | 0.00 | 0.00 | 79 | 1016.5 |
| 20260906000911 | 25 | 40 | 6.4 | 6.4 | 0.00 | 0.00 | 0.00 | 79 | 1016.4 |
| 20260906000406 | 26 | 14 | 3.2 | 4.8 | 0.00 | 0.00 | 0.00 | 79 | 1016.5 |
| 20260905235900 | 26 | 49 | 6.4 | 11.3 | 0.00 | 0.00 | 0.00 | 79 | 1016.5 |
| 20260905235355 | 26 | 35 | 9.7 | 14.5 | 0.00 | 0.00 | 0.00 | 78 | 1016.7 |
| 20260905234850 | 26 | 71 | 4.8 | 6.4 | 0.00 | 0.00 | 0.00 | 78 | 1016.5 |
| 20260905234345 | 26 | 20 | 3.2 | 4.8 | 0.00 | 0.00 | 0.00 | 78 | 1016.4 |
| 20260905233840 | 26 | 70 | 6.4 | 6.4 | 0.00 | 0.00 | 0.00 | 78 | 1016.3 |
| 20260905233335 | 26 | 39 | 9.7 | 11.3 | 0.00 | 0.00 | 0.00 | 78 | 1016.4 |
| 20260905232834 | 26 | 49 | 3.2 | 3.2 | 0.00 | 0.00 | 0.00 | 77 | 1016.1 |
| 20260905232331 | 26 | 124 | 14.5 | 14.5 | 0.00 | 0.00 | 0.00 | 77 | 1016.3 |
| 20260905231826 | 27 | 80 | 4.8 | 9.7 | 0.00 | 0.00 | 0.00 | 76 | 1016.3 |
| 20260905231321 | 27 | 95 | 8.0 | 11.3 | 0.00 | 0.00 | 0.00 | 76 | 1016.2 |
| 20260905230818 | 27 | 26 | 9.7 | 11.3 | 0.00 | 0.00 | 0.00 | 76 | 1016.4 |
| 20260905230315 | 27 | 60 | 9.7 | 12.9 | 0.00 | 0.00 | 0.00 | 75 | 1016.1 |
| 20260905225815 | 27 | 52 | 4.8 | 4.8 | 0.00 | 0.00 | 0.00 | 74 | 1016.2 |
| 20260905225310 | 27 | 49 | 8.0 | 11.3 | 0.00 | 0.00 | 0.00 | 75 | 1015.9 |
| 20260905224810 | 27 | 42 | 9.7 | 14.5 | 0.00 | 0.00 | 0.00 | 76 | 1015.9 |
| 20260905224305 | 27 | 57 | 6.4 | 9.7 | 0.00 | 0.00 | 0.00 | 76 | 1016.0 |
| 20260905223800 | 27 | 72 | 4.8 | 4.8 | 0.00 | 0.00 | 0.00 | 76 | 1016.1 |
| 20260905223258 | 27 | 71 | 4.8 | 6.4 | 0.00 | 0.00 | 0.00 | 77 | 1016.0 |
| 20260905222753 | 27 | 54 | 4.8 | 6.4 | 0.00 | 0.00 | 0.00 | 75 | 1016.2 |
| 20260905222252 | 28 | 35 | 12.9 | 16.1 | 0.00 | 0.00 | 0.00 | 74 | 1016.1 |
| 20260905221748 | 28 | 78 | 11.3 | 14.5 | 0.00 | 0.00 | 0.00 | 74 | 1016.2 |
| 20260905221244 | 28 | 71 | 3.2 | 4.8 | 0.00 | 0.00 | 0.00 | 73 | 1016.2 |
| 20260905220740 | 28 | 46 | 8.0 | 11.3 | 0.00 | 0.00 | 0.00 | 73 | 1016.2 |
| 20260905220236 | 28 | 48 | 4.8 | 6.4 | 0.00 | 0.00 | 0.00 | 73 | 1016.2 |
| 20260905215735 | 27 | 43 | 8.0 | 11.3 | 0.00 | 0.00 | 0.00 | 74 | 1016.2 |
| 20260905215231 | 28 | 53 | 12.9 | 12.9 | 0.00 | 0.00 | 0.00 | 73 | 1016.0 |
| 20260905214721 | 28 | 30 | 8.0 | 9.7 | 0.00 | 0.00 | 0.00 | 73 | 1016.2 |
| 20260905214216 | 28 | 51 | 6.4 | 11.3 | 0.00 | 0.00 | 0.00 | 74 | 1015.9 |
| 20260905213712 | 28 | 20 | 6.4 | 6.4 | 0.00 | 0.00 | 0.00 | 73 | 1016.0 |
| 20260905213208 | 28 | 57 | 14.5 | 16.1 | 0.00 | 0.00 | 0.00 | 72 | 1015.9 |
| 20260905212702 | 28 | 19 | 8.0 | 11.3 | 0.00 | 0.00 | 0.00 | 71 | 1016.0 |
| 20260905212156 | 28 | 65 | 6.4 | 6.4 | 0.00 | 0.00 | 0.00 | 73 | 1016.1 |
| 20260905211650 | 28 | 61 | 12.9 | 14.5 | 0.00 | 0.00 | 0.00 | 72 | 1015.9 |
| 20260905211145 | 28 | 353 | 6.4 | 9.7 | 0.00 | 0.00 | 0.00 | 73 | 1016.2 |
| 20260905210643 | 28 | 357 | 1.6 | 1.6 | 0.00 | 0.00 | 0.00 | 74 | 1016.1 |
| 20260905210136 | 27 | 51 | 8.0 | 11.3 | 0.00 | 0.00 | 0.00 | 77 | 1016.0 |
| 20260905205635 | 27 | 357 | 6.4 | 9.7 | 0.00 | 0.00 | 0.00 | 76 | 1016.1 |
| 20260905205130 | 27 | 7 | 9.7 | 12.9 | 0.00 | 0.00 | 0.00 | 76 | 1016.0 |
| 20260905204629 | 27 | 62 | 9.7 | 12.9 | 0.00 | 0.00 | 0.00 | 77 | 1015.8 |
| 20260905204125 | 28 | 53 | 3.2 | 3.2 | 0.00 | 0.00 | 0.00 | 74 | 1016.0 |
| 20260905203625 | 27 | 17 | 6.4 | 9.7 | 0.00 | 0.00 | 0.00 | 76 | 1016.1 |
| 20260905203120 | 27 | 43 | 9.7 | 16.1 | 0.00 | 0.00 | 0.00 | 78 | 1016.2 |
| 20260905202615 | 27 | 48 | 9.7 | 11.3 | 0.00 | 0.00 | 0.00 | 79 | 1016.5 |
| 20260905202110 | 27 | 65 | 6.4 | 11.3 | 0.00 | 0.00 | 0.00 | 79 | 1016.3 |
| 20260905201606 | 27 | 66 | 11.3 | 12.9 | 0.00 | 0.00 | 0.00 | 79 | 1016.7 |
| 20260905201106 | 27 | 38 | 8.0 | 11.3 | 0.00 | 0.00 | 0.00 | 80 | 1016.6 |
| 20260905200601 | 27 | 274 | 4.8 | 6.4 | 0.00 | 0.00 | 0.00 | 78 | 1016.4 |
| 20260905200056 | 27 | 40 | 6.4 | 12.9 | 0.00 | 0.00 | 0.00 | 79 | 1016.5 |
| 20260905195549 | 27 | 355 | 3.2 | 3.2 | 0.00 | 0.00 | 0.00 | 79 | 1016.5 |
| 20260905195045 | 27 | 57 | 11.3 | 16.1 | 0.00 | 0.00 | 0.00 | 79 | 1016.5 |
| 20260905194545 | 28 | 23 | 4.8 | 9.7 | 0.00 | 0.00 | 0.00 | 79 | 1016.4 |
| 20260905194044 | 28 | 66 | 6.4 | 12.9 | 0.00 | 0.00 | 0.00 | 78 | 1016.5 |
| 20260905193539 | 27 | 51 | 4.8 | 6.4 | 0.00 | 0.00 | 0.00 | 79 | 1016.4 |
| 20260905193034 | 28 | 53 | 8.0 | 11.3 | 0.00 | 0.00 | 0.00 | 79 | 1016.3 |
| 20260905192529 | 28 | 14 | 4.8 | 9.7 | 0.00 | 0.00 | 0.00 | 77 | 1016.3 |
| 20260905192026 | 28 | 58 | 6.4 | 9.7 | 0.00 | 0.00 | 0.00 | 76 | 1016.3 |
| 20260905191524 | 29 | 347 | 4.8 | 9.7 | 0.00 | 0.00 | 0.00 | 76 | 1016.4 |
| 20260905191023 | 28 | 72 | 9.7 | 14.5 | 0.00 | 0.00 | 0.00 | 78 | 1016.5 |
| 20260905190521 | 28 | 74 | 12.9 | 20.9 | 0.00 | 0.00 | 0.00 | 79 | 1016.4 |
| 20260905190016 | 28 | 19 | 8.0 | 12.9 | 0.00 | 0.00 | 0.00 | 79 | 1016.4 |
| 20260905185510 | 29 | 49 | 8.0 | 11.3 | 0.00 | 0.00 | 0.00 | 76 | 1016.6 |
| 20260905185009 | 29 | 40 | 6.4 | 6.4 | 0.00 | 0.00 | 0.00 | 75 | 1016.3 |
| 20260905184504 | 29 | 57 | 9.7 | 14.5 | 0.00 | 0.00 | 0.00 | 76 | 1016.4 |
| 20260905184002 | 30 | 43 | 6.4 | 9.7 | 0.00 | 0.00 | 0.00 | 76 | 1016.4 |
| 20260905183457 | 29 | 43 | 9.7 | 12.9 | 0.00 | 0.00 | 0.00 | 75 | 1016.3 |
| 20260905182952 | 30 | 66 | 8.0 | 9.7 | 0.00 | 0.00 | 0.00 | 75 | 1016.3 |
| 20260905182451 | 30 | 18 | 4.8 | 4.8 | 0.00 | 0.00 | 0.00 | 75 | 1016.2 |
| 20260905181946 | 30 | 345 | 9.7 | 14.5 | 0.00 | 0.00 | 0.00 | 74 | 1016.3 |
| 20260905181441 | 30 | 23 | 9.7 | 12.9 | 0.00 | 0.00 | 0.00 | 75 | 1016.2 |
| 20260905180940 | 30 | 78 | 4.8 | 6.4 | 0.00 | 0.00 | 0.00 | 74 | 1016.2 |
| 20260905180435 | 30 | 73 | 9.7 | 12.9 | 0.00 | 0.00 | 0.00 | 73 | 1016.2 |
| 20260905175930 | 30 | 23 | 9.7 | 12.9 | 0.00 | 0.00 | 0.00 | 74 | 1016.1 |
| 20260905175430 | 30 | 348 | 4.8 | 6.4 | 0.00 | 0.00 | 0.00 | 72 | 1016.0 |
| 20260905174925 | 30 | 69 | 6.4 | 11.3 | 0.00 | 0.00 | 0.00 | 71 | 1016.1 |
| 20260905174421 | 30 | 28 | 6.4 | 9.7 | 0.00 | 0.00 | 0.00 | 71 | 1016.3 |
| 20260905173916 | 30 | 30 | 9.7 | 14.5 | 0.00 | 0.00 | 0.00 | 72 | 1016.3 |
| 20260905173413 | 30 | 93 | 9.7 | 12.9 | 0.00 | 0.00 | 0.00 | 71 | 1016.3 |
| 20260905172912 | 30 | 43 | 9.7 | 11.3 | 0.00 | 0.00 | 0.00 | 71 | 1016.2 |
| 20260905172410 | 30 | 72 | 6.4 | 6.4 | 0.00 | 0.00 | 0.00 | 71 | 1016.2 |
| 20260905171906 | 31 | 3 | 4.8 | 6.4 | 0.00 | 0.00 | 0.00 | 68 | 1016.4 |
| 20260905171403 | 31 | 6 | 3.2 | 3.2 | 0.00 | 0.00 | 0.00 | 68 | 1016.6 |
| 20260905170859 | 30 | 348 | 8.0 | 11.3 | 0.00 | 0.00 | 0.00 | 69 | 1016.6 |
| 20260905170355 | 30 | 29 | 6.4 | 9.7 | 0.00 | 0.00 | 0.00 | 71 | 1016.7 |
| 20260905165855 | 30 | 48 | 6.4 | 9.7 | 0.00 | 0.00 | 0.00 | 71 | 1016.8 |
| 20260905165350 | 30 | 57 | 3.2 | 3.2 | 0.00 | 0.00 | 0.00 | 69 | 1016.8 |
| 20260905164850 | 30 | 19 | 9.7 | 14.5 | 0.00 | 0.00 | 0.00 | 69 | 1016.8 |
| 20260905164344 | 30 | 56 | 11.3 | 12.9 | 0.00 | 0.00 | 0.00 | 72 | 1016.4 |
| 20260905163841 | 30 | 78 | 6.4 | 9.7 | 0.00 | 0.00 | 0.00 | 71 | 1016.8 |
| 20260905163337 | 30 | 63 | 3.2 | 4.8 | 0.00 | 0.00 | 0.00 | 71 | 1016.6 |
| 20260905162833 | 30 | 29 | 6.4 | 6.4 | 0.00 | 0.00 | 0.00 | 73 | 1016.7 |
| 20260905162332 | 29 | 345 | 6.4 | 9.7 | 0.00 | 0.00 | 0.00 | 72 | 1016.8 |
| 20260905161827 | 30 | 23 | 6.4 | 9.7 | 0.00 | 0.00 | 0.00 | 73 | 1016.7 |
| 20260905161327 | 30 | 44 | 4.8 | 9.7 | 0.00 | 0.00 | 0.00 | 71 | 1016.5 |
| 20260905160825 | 30 | 38 | 6.4 | 9.7 | 0.00 | 0.00 | 0.00 | 73 | 1016.7 |
| 20260905160319 | 30 | 8 | 9.7 | 14.5 | 0.00 | 0.00 | 0.00 | 72 | 1016.7 |
| 20260905155814 | 29 | 29 | 6.4 | 11.3 | 0.00 | 0.00 | 0.00 | 73 | 1016.6 |
| 20260905155312 | 30 | 40 | 11.3 | 12.9 | 0.00 | 0.00 | 0.00 | 74 | 1016.6 |
| 20260905154807 | 30 | 34 | 6.4 | 9.7 | 0.00 | 0.00 | 0.00 | 73 | 1016.6 |
| 20260905154303 | 29 | 22 | 4.8 | 4.8 | 0.00 | 0.00 | 0.00 | 76 | 1016.4 |
| 20260905153758 | 30 | 76 | 6.4 | 9.7 | 0.00 | 0.00 | 0.00 | 74 | 1016.4 |
| 20260905153255 | 29 | 357 | 4.8 | 6.4 | 0.00 | 0.00 | 0.00 | 75 | 1016.3 |
| 20260905152749 | 29 | 30 | 6.4 | 6.4 | 0.00 | 0.00 | 0.00 | 75 | 1016.5 |
| 20260905152248 | 30 | 37 | 4.8 | 4.8 | 0.00 | 0.00 | 0.00 | 74 | 1016.3 |
| 20260905151748 | 29 | 41 | 4.8 | 9.7 | 0.00 | 0.00 | 0.00 | 74 | 1016.2 |
| 20260905151244 | 29 | 72 | 6.4 | 9.7 | 0.00 | 0.00 | 0.00 | 74 | 1016.2 |
| 20260905150743 | 29 | 0 | 6.4 | 9.7 | 0.00 | 0.00 | 0.00 | 75 | 1016.3 |
| 20260905150238 | 28 | 38 | 4.8 | 4.8 | 0.00 | 0.00 | 0.00 | 75 | 1016.4 |
| 20260905145735 | 29 | 36 | 3.2 | 4.8 | 0.00 | 0.00 | 0.00 | 75 | 1016.3 |
| 20260905145230 | 28 | 324 | 4.8 | 4.8 | 0.00 | 0.00 | 0.00 | 74 | 1016.2 |
| 20260905144728 | 29 | 63 | 3.2 | 4.8 | 0.00 | 0.00 | 0.00 | 74 | 1016.1 |
| 20260905144224 | 28 | 60 | 6.4 | 11.3 | 0.00 | 0.00 | 0.00 | 75 | 1015.9 |
| 20260905143718 | 30 | 5 | 6.4 | 9.7 | 0.00 | 0.00 | 0.00 | 75 | 1016.0 |
| 20260905143217 | 28 | 53 | 6.4 | 11.3 | 0.00 | 0.00 | 0.00 | 76 | 1015.8 |
| 20260905142716 | 28 | 1 | 4.8 | 4.8 | 0.00 | 0.00 | 0.00 | 78 | 1015.7 |
| 20260905142211 | 28 | 23 | 6.4 | 9.7 | 0.00 | 0.00 | 0.00 | 79 | 1015.6 |
| 20260905141706 | 28 | 6 | 3.2 | 4.8 | 0.00 | 0.00 | 0.00 | 80 | 1016.0 |
| 20260905141203 | 27 | 67 | 4.8 | 4.8 | 0.00 | 0.00 | 0.00 | 81 | 1015.7 |
| 20260905140657 | 27 | 26 | 3.2 | 4.8 | 0.00 | 0.00 | 0.00 | 81 | 1015.8 |
| 20260905140151 | 28 | 25 | 3.2 | 4.8 | 0.00 | 0.00 | 0.00 | 81 | 1015.6 |
| 20260905135646 | 27 | 29 | 1.6 | 3.2 | 0.00 | 0.00 | 0.00 | 82 | 1015.6 |
| 20260905135142 | 27 | 3 | 1.6 | 3.2 | 0.00 | 0.00 | 0.00 | 83 | 1015.6 |
| 20260905134641 | 27 | 24 | 1.6 | 1.6 | 0.00 | 0.00 | 0.00 | 85 | 1015.6 |
| 20260905134140 | 27 | 37 | 1.6 | 1.6 | 0.00 | 0.00 | 0.00 | 84 | 1015.5 |
| 20260905133636 | 27 | 12 | 3.2 | 3.2 | 0.00 | 0.00 | 0.00 | 85 | 1015.4 |
| 20260905133135 | 26 | 357 | 1.6 | 3.2 | 0.00 | 0.00 | 0.00 | 87 | 1015.4 |
| 20260905132635 | 26 | 354 | 1.6 | 1.6 | 0.00 | 0.00 | 0.00 | 88 | 1015.3 |
| 20260905132130 | 26 | 339 | 3.2 | 4.8 | 0.00 | 0.00 | 0.00 | 88 | 1015.2 |
| 20260905131625 | 25 | 4 | 1.6 | 1.6 | 0.00 | 0.00 | 0.00 | 88 | 1015.3 |
| 20260905131121 | 26 | 343 | 1.6 | 3.2 | 0.00 | 0.00 | 0.00 | 87 | 1015.3 |
| 20260905130621 | 25 | 344 | 0.0 | 1.6 | 0.00 | 0.00 | 0.00 | 88 | 1015.3 |
| 20260905130115 | 25 | 336 | 0.0 | 1.6 | 0.00 | 0.00 | 0.00 | 89 | 1015.4 |
| 20260905125614 | 25 | 350 | 1.6 | 1.6 | 0.00 | 0.00 | 0.00 | 88 | 1015.4 |
| 20260905125110 | 25 | 5 | 3.2 | 3.2 | 0.00 | 0.00 | 0.00 | 87 | 1015.3 |
| 20260905124601 | 26 | 353 | 0.0 | 1.6 | 0.00 | 0.00 | 0.00 | 86 | 1015.2 |
| 20260905124057 | 25 | 349 | 0.0 | 1.6 | 0.00 | 0.00 | 0.00 | 88 | 1015.2 |
| 20260905123552 | 25 | 354 | 0.0 | 1.6 | 0.00 | 0.00 | 0.00 | 90 | 1015.3 |
| 20260905123049 | 24 | 351 | 0.0 | 0.0 | 0.00 | 0.00 | 0.00 | 91 | 1015.2 |
| 20260905122548 | 23 | 344 | 0.0 | 0.0 | 0.00 | 0.00 | 0.00 | 93 | 1015.2 |
| 20260905122043 | 23 | 346 | 1.6 | 1.6 | 0.00 | 0.00 | 0.00 | 94 | 1015.1 |
| 20260905121537 | 23 | 357 | 0.0 | 0.0 | 0.00 | 0.00 | 0.00 | 96 | 1015.2 |
| 20260905121033 | 23 | 347 | 1.6 | 1.6 | 0.00 | 0.00 | 0.00 | 96 | 1015.0 |
| 20260905120532 | 22 | 349 | 3.2 | 3.2 | 0.00 | 0.00 | 0.00 | 97 | 1015.0 |
| 20260905120027 | 22 | 357 | 3.2 | 3.2 | 0.00 | 0.00 | 0.00 | 97 | 1015.1 |
| 20260905115526 | 22 | 342 | 1.6 | 1.6 | 0.00 | 0.00 | 0.00 | 97 | 1014.8 |
| 20260905115021 | 22 | 349 | 6.4 | 6.4 | 0.00 | 0.00 | 0.00 | 97 | 1014.9 |
| 20260905114520 | 23 | 0 | 3.2 | 3.2 | 0.00 | 0.00 | 0.00 | 97 | 1014.6 |
| 20260905114020 | 23 | 340 | 1.6 | 1.6 | 0.00 | 0.00 | 0.00 | 97 | 1014.6 |
| 20260905113515 | 23 | 339 | 1.6 | 1.6 | 0.00 | 0.00 | 0.00 | 97 | 1014.4 |
| 20260905113011 | 23 | 0 | 1.6 | 1.6 | 0.00 | 0.00 | 0.00 | 97 | 1014.3 |
| 20260905112506 | 23 | 348 | 1.6 | 3.2 | 0.00 | 0.00 | 0.00 | 97 | 1014.3 |
| 20260905112001 | 23 | 351 | 3.2 | 3.2 | 0.00 | 0.00 | 0.00 | 97 | 1014.3 |
| 20260905111500 | 23 | 344 | 0.0 | 1.6 | 0.00 | 0.00 | 0.00 | 97 | 1014.2 |
| 20260905110955 | 23 | 349 | 1.6 | 1.6 | 0.00 | 0.00 | 0.00 | 97 | 1014.2 |
| 20260905110454 | 23 | 337 | 0.0 | 1.6 | 0.00 | 0.00 | 0.00 | 97 | 1013.9 |
| 20260905105948 | 23 | 337 | 0.0 | 0.0 | 0.00 | 0.00 | 0.00 | 97 | 1013.5 |
| 20260905105443 | 23 | 340 | 0.0 | 0.0 | 0.00 | 0.00 | 0.00 | 97 | 1013.7 |
| 20260905104942 | 23 | 334 | 0.0 | 1.6 | 0.00 | 0.00 | 0.00 | 97 | 1013.9 |
| 20260905104438 | 23 | 339 | 1.6 | 1.6 | 0.00 | 0.00 | 0.00 | 97 | 1013.6 |
| 20260905103933 | 23 | 342 | 1.6 | 1.6 | 0.00 | 0.00 | 0.00 | 97 | 1013.7 |
| 20260905103429 | 23 | 357 | 0.0 | 0.0 | 0.00 | 0.00 | 0.00 | 96 | 1013.6 |
| 20260905102925 | 23 | 7 | 1.6 | 1.6 | 0.00 | 0.00 | 0.00 | 96 | 1013.7 |
| 20260905102421 | 23 | 354 | 0.0 | 1.6 | 0.00 | 0.00 | 0.00 | 97 | 1013.9 |
| 20260905101916 | 23 | 344 | 0.0 | 0.0 | 0.00 | 0.00 | 0.00 | 97 | 1013.7 |
| 20260905101414 | 23 | 344 | 0.0 | 0.0 | 0.00 | 0.00 | 0.00 | 97 | 1013.9 |
| 20260905100909 | 23 | 347 | 0.0 | 0.0 | 0.00 | 0.00 | 0.00 | 97 | 1014.1 |
| 20260905100404 | 23 | 353 | 1.6 | 1.6 | 0.00 | 0.00 | 0.00 | 97 | 1014.0 |
| 20260905095903 | 23 | 338 | 1.6 | 3.2 | 0.00 | 0.00 | 0.00 | 96 | 1014.2 |
| 20260905095359 | 23 | 345 | 1.6 | 1.6 | 0.00 | 0.00 | 0.00 | 96 | 1014.2 |
| 20260905094858 | 23 | 345 | 1.6 | 3.2 | 0.00 | 0.00 | 0.00 | 96 | 1014.0 |
| 20260905094354 | 23 | 349 | 0.0 | 0.0 | 0.00 | 0.00 | 0.00 | 96 | 1013.7 |
| 20260905093853 | 23 | 345 | 1.6 | 1.6 | 0.00 | 0.00 | 0.00 | 95 | 1014.1 |
| 20260905093348 | 23 | 338 | 0.0 | 0.0 | 0.00 | 0.00 | 0.00 | 95 | 1014.1 |
| 20260905092844 | 24 | 357 | 1.6 | 1.6 | 0.00 | 0.00 | 0.00 | 95 | 1014.3 |
| 20260905092344 | 23 | 348 | 0.0 | 1.6 | 0.00 | 0.00 | 0.00 | 95 | 1014.2 |
| 20260905091839 | 23 | 337 | 1.6 | 1.6 | 0.00 | 0.00 | 0.00 | 96 | 1014.2 |
| 20260905091333 | 23 | 338 | 1.6 | 1.6 | 0.00 | 0.00 | 0.00 | 96 | 1014.3 |
| 20260905090832 | 23 | 332 | 1.6 | 1.6 | 0.00 | 0.00 | 0.00 | 96 | 1014.2 |
| 20260905090328 | 23 | 337 | 0.0 | 1.6 | 0.00 | 0.00 | 0.00 | 96 | 1014.2 |
| 20260905085827 | 24 | 1 | 4.8 | 4.8 | 0.00 | 0.00 | 0.00 | 95 | 1014.3 |
| 20260905085322 | 24 | 352 | 1.6 | 3.2 | 0.00 | 0.00 | 0.00 | 95 | 1014.2 |
| 20260905084817 | 25 | 347 | 0.0 | 0.0 | 0.00 | 0.00 | 0.00 | 94 | 1014.3 |
| 20260905084317 | 24 | 339 | 0.0 | 0.0 | 0.00 | 0.00 | 0.00 | 95 | 1014.4 |
| 20260905083812 | 24 | 332 | 0.0 | 1.6 | 0.00 | 0.00 | 0.00 | 95 | 1014.5 |
| 20260905083308 | 24 | 330 | 1.6 | 1.6 | 0.00 | 0.00 | 0.00 | 95 | 1014.6 |
| 20260905082803 | 24 | 334 | 1.6 | 3.2 | 0.00 | 0.00 | 0.00 | 95 | 1014.6 |
| 20260905082259 | 25 | 352 | 1.6 | 1.6 | 0.00 | 0.00 | 0.00 | 95 | 1014.7 |
| 20260905081754 | 24 | 331 | 1.6 | 1.6 | 0.00 | 0.00 | 0.00 | 95 | 1014.4 |
| 20260905081249 | 24 | 342 | 0.0 | 1.6 | 0.00 | 0.00 | 0.00 | 95 | 1014.5 |
| 20260905080748 | 24 | 346 | 0.0 | 1.6 | 0.00 | 0.00 | 0.00 | 95 | 1014.6 |
| 20260905080242 | 24 | 7 | 3.2 | 3.2 | 0.00 | 0.00 | 0.00 | 95 | 1014.5 |
| 20260905075741 | 25 | 346 | 1.6 | 1.6 | 0.00 | 0.00 | 0.00 | 95 | 1014.6 |
| 20260905075240 | 25 | 355 | 1.6 | 1.6 | 0.00 | 0.00 | 0.00 | 94 | 1014.3 |
| 20260905074739 | 25 | 346 | 0.0 | 0.0 | 0.00 | 0.00 | 0.00 | 94 | 1014.3 |
| 20260905074235 | 25 | 347 | 0.0 | 1.6 | 0.00 | 0.00 | 0.00 | 93 | 1014.3 |
| 20260905073731 | 25 | 339 | 0.0 | 0.0 | 0.00 | 0.00 | 0.00 | 93 | 1014.3 |
| 20260905073226 | 25 | 315 | 1.6 | 1.6 | 0.00 | 0.00 | 0.00 | 93 | 1014.2 |
| 20260905072725 | 25 | 317 | 1.6 | 3.2 | 0.00 | 0.00 | 0.00 | 93 | 1014.3 |
| 20260905072221 | 25 | 310 | 1.6 | 1.6 | 0.00 | 0.00 | 0.00 | 94 | 1014.4 |
| 20260905071718 | 25 | 324 | 1.6 | 1.6 | 0.00 | 0.00 | 0.00 | 94 | 1014.4 |
| 20260905071213 | 25 | 340 | 1.6 | 1.6 | 0.00 | 0.00 | 0.00 | 95 | 1014.5 |
| 20260905070708 | 25 | 336 | 1.6 | 1.6 | 0.00 | 0.00 | 0.00 | 95 | 1014.5 |
| 20260905070204 | 25 | 344 | 0.0 | 0.0 | 0.00 | 0.00 | 0.00 | 95 | 1014.5 |
| 20260905065702 | 25 | 345 | 3.2 | 3.2 | 0.00 | 0.00 | 0.00 | 95 | 1014.7 |
| 20260905065157 | 25 | 359 | 3.2 | 3.2 | 0.00 | 0.00 | 0.00 | 94 | 1014.7 |
| 20260905064652 | 25 | 9 | 1.6 | 3.2 | 0.00 | 0.00 | 0.00 | 94 | 1014.6 |
| 20260905064148 | 25 | 341 | 0.0 | 1.6 | 0.00 | 0.00 | 0.00 | 94 | 1014.6 |
| 20260905063646 | 25 | 346 | 0.0 | 0.0 | 0.00 | 0.00 | 0.00 | 94 | 1014.5 |
| 20260905063143 | 25 | 345 | 1.6 | 1.6 | 0.00 | 0.00 | 0.00 | 94 | 1014.5 |
| 20260905062638 | 25 | 344 | 1.6 | 1.6 | 0.00 | 0.00 | 0.00 | 94 | 1014.4 |
| 20260905062137 | 25 | 332 | 1.6 | 1.6 | 0.00 | 0.00 | 0.00 | 94 | 1014.7 |
| 20260905061632 | 25 | 346 | 0.0 | 0.0 | 0.00 | 0.00 | 0.00 | 95 | 1014.8 |
| 20260905061132 | 25 | 17 | 8.0 | 9.7 | 0.00 | 0.00 | 0.00 | 95 | 1015.0 |
| 20260905060627 | 25 | 14 | 6.4 | 9.7 | 0.00 | 0.00 | 0.00 | 94 | 1014.7 |
| 20260905060124 | 26 | 359 | 1.6 | 1.6 | 0.00 | 0.00 | 0.00 | 93 | 1014.6 |
| 20260905055622 | 26 | 348 | 1.6 | 3.2 | 0.00 | 0.00 | 0.00 | 93 | 1014.6 |
| 20260905055118 | 26 | 326 | 1.6 | 1.6 | 0.00 | 0.00 | 0.00 | 93 | 1014.4 |
| 20260905054614 | 25 | 337 | 1.6 | 1.6 | 0.00 | 0.00 | 0.00 | 94 | 1014.3 |
| 20260905054109 | 25 | 344 | 0.0 | 0.0 | 0.00 | 0.00 | 0.00 | 94 | 1014.4 |
| 20260905053608 | 25 | 340 | 0.0 | 0.0 | 0.00 | 0.00 | 0.00 | 94 | 1014.6 |
| 20260905053103 | 26 | 353 | 3.2 | 3.2 | 0.00 | 0.00 | 0.00 | 94 | 1014.4 |
| 20260905052603 | 26 | 343 | 1.6 | 1.6 | 0.00 | 0.00 | 0.00 | 93 | 1014.3 |
| 20260905052057 | 26 | 347 | 1.6 | 1.6 | 0.00 | 0.00 | 0.00 | 93 | 1014.3 |
| 20260905051553 | 26 | 331 | 1.6 | 1.6 | 0.00 | 0.00 | 0.00 | 93 | 1014.3 |
| 20260905051050 | 26 | 4 | 1.6 | 1.6 | 0.00 | 0.00 | 0.00 | 93 | 1014.4 |
| 20260905050546 | 26 | 331 | 1.6 | 3.2 | 0.00 | 0.00 | 0.00 | 92 | 1014.4 |
| 20260905050042 | 26 | 348 | 1.6 | 3.2 | 0.00 | 0.00 | 0.00 | 92 | 1014.5 |
| 20260905045537 | 26 | 348 | 0.0 | 0.0 | 0.00 | 0.00 | 0.00 | 91 | 1014.3 |
| 20260905045032 | 26 | 0 | 1.6 | 1.6 | 0.00 | 0.00 | 0.00 | 90 | 1014.7 |
| 20260905044532 | 27 | 12 | 3.2 | 4.8 | 0.00 | 0.00 | 0.00 | 88 | 1014.8 |
| 20260905044027 | 27 | 357 | 1.6 | 1.6 | 0.00 | 0.00 | 0.00 | 86 | 1014.5 |
| 20260905043526 | 27 | 19 | 3.2 | 3.2 | 0.00 | 0.00 | 0.00 | 86 | 1014.4 |
| 20260905043021 | 27 | 351 | 1.6 | 1.6 | 0.00 | 0.00 | 0.00 | 86 | 1014.3 |
| 20260905042514 | 27 | 338 | 0.0 | 0.0 | 0.00 | 0.00 | 0.00 | 86 | 1014.1 |